Flag for Norway Weather past 2 weeks in Hammerfest, Norway

Now
46 °F

Passing clouds.


Feels Like: 46 °F
Forecast: 40 / 46 °F
Wind: 2 mph from North

Location: Hammerfest

Current Time: Oct 1, 2014 at 10:58:35 PM

Latest Report: Oct 1, 2014 at 9:50 PM


Visibility: N/A

Pressure: 29.95 "Hg

Humidity: 76%

Dew point: 39 °F

Location of HammerfestLocation

Historic Weather in Hammerfest — Graph

°F

Hammerfest temperature yesterday

Maximum temperature yesterday: 43 °F (at 2:00 PM)
Minimum temperature yesterday: 39 °F (at 1:50 AM)
Average temperature yesterday: 40 °F

Past Weeks' High & Low Weather Summary

 TemperatureHumidityPressure
High50 °F (Sep 17, 11:50 AM)100% (Sep 25, 1:50 AM)30.27 "Hg (Sep 25, 1:50 AM)
Low30 °F (Sep 22, 7:50 AM)53% (Sep 26, 11:50 AM)28.74 "Hg (Sep 27, 6:50 AM)
Average40 °F77%29.72 "Hg
* Reported Sep 16 8:50 PM — Oct 1 8:50 PM, Hammerfest, Weather by CustomWeather, © 2014

Note: Actual official high and low records may vary slightly from our data, if they occured in-between our weather recording intervals... More about our weather records

Advertising

Hammerfest weather history for previous 24 hours

 ConditionsComfort  
Time TempWeatherWind HumidityBarometerVisibility
8:50 PM
Oct 1
46 °FPartly cloudy.5 mph71%29.98 "HgN/A
7:50 PM46 °FPassing clouds.6 mph62%30.01 "HgN/A
6:50 PM43 °FPartly cloudy.1 mph81%30.04 "HgN/A
5:50 PM43 °FLight rain. Broken clouds.2 mph76%30.04 "HgN/A
4:50 PM43 °FBroken clouds.7 mph71%30.07 "HgN/A
3:50 PM45 °FPartly sunny.7 mph66%30.07 "HgN/A
2:50 PM45 °FMostly cloudy.5 mph57%30.07 "HgN/A
1:50 PM43 °FPartly sunny.3 mph71%30.07 "HgN/A
12:50 PM45 °FSunny.2 mph57%30.07 "Hg10 mi
12:08 PM43 °FPassing clouds.6 mph66%30.07 "HgN/A
11:17 AM43 °FSunny.6 mph61%30.09 "Hg10 mi
10:00 AM41 °FSunny.1 mph61%30.09 "Hg10 mi
8:50 AM39 °FSunny.5 mph65%30.12 "Hg10 mi
7:50 AM36 °FSunny.2 mph70%30.12 "Hg10 mi
6:50 AM36 °FClear.2 mph70%30.12 "Hg10 mi
5:50 AM37 °FClear.2 mph65%30.15 "Hg10 mi
4:50 AM39 °FClear.2 mph61%30.15 "Hg10 mi
3:50 AM39 °FMostly cloudy.2 mph65%30.15 "HgN/A
2:50 AM39 °FPassing clouds.5 mph65%30.18 "HgN/A
1:50 AM39 °FClear.2 mph65%30.18 "Hg10 mi
12:50 AM39 °FClear.1 mph70%30.21 "Hg10 mi
10:50 PM
Sep 30
39 °FPassing clouds.6 mph75%30.21 "HgN/A
Weather by CustomWeather, © 2014

See weather overviewHow to use our weather pages